Orbital Elements at Epoch 2459200.5 (2020-Dec-17.0) TDB
Reference: JPL 22 (heliocentric ecliptic J2000)
Element | Value | Uncertainty (1-sigma) | Units |
e | .1316846194167928 | 5.9005e-08 | |
a | 3.170701157051276 | 2.5222e-08 | au |
q | 2.753168581900594 | 1.9201e-07 | au |
i | 4.655468121856627 | 5.2037e-06 | deg |
node | 27.04457475499164 | 6.172e-05 | deg |
peri | 130.6885583511068 | 6.4204e-05 | deg |
M | 295.7721581559801 | 1.8275e-05 | deg |
tp | 2459568.419004983750 (2021-Dec-19.91900498) | 0.00010674 | TDB |
period | 2062.202901287147 5.65 | 2.4607e-05 6.737e-08 | d yr |
n | .1745706010670928 | 2.083e-09 | deg/d |
Q | 3.588233732201958 | 2.8544e-08 | au |
|
| | Orbit Determination Parameters
Additional Information
|